• In Uzbekistan
  • List of Countries
  • For 7 days
  • Water Temperature
  • Satellite Maps
  • Weather Map
  • Weather Widgets
  • user-avatar
    Login

    Hourly Weather Novomlynivka

    Today, 18 December, Monday

    Time Temperature Precipitation Wind Pressure Humidity
    00:00 +5°C° 0 mm 6 mps 742 mmHg 79%
    01:00 +5°C° 0 mm 6 mps 742 mmHg 79%
    02:00 +4°C° 0 mm 6 mps 742 mmHg 81%
    03:00 +4°C° 0.1 mm 6 mps 741 mmHg 83%
    04:00 +4°C° 0.1 mm 6 mps 741 mmHg 84%
    05:00 +4°C° 0.1 mm 7 mps 741 mmHg 86%
    06:00 +4°C° 0.5 mm 7 mps 740 mmHg 85%
    07:00 +4°C° 0.5 mm 7 mps 740 mmHg 84%
    08:00 +4°C° 0 mm 8 mps 740 mmHg 81%
    09:00 +5°C° 0.8 mm 8 mps 740 mmHg 82%
    10:00 +5°C° 0.8 mm 8 mps 740 mmHg 83%
    11:00 +5°C° 0.8 mm 7 mps 740 mmHg 84%
    12:00 +6°C° 0 mm 7 mps 740 mmHg 83%
    13:00 +6°C° 0 mm 7 mps 741 mmHg 82%
    14:00 +8°C° 0 mm 7 mps 741 mmHg 82%
    15:00 +6°C° 0 mm 7 mps 741 mmHg 80%
    16:00 +5°C° 0 mm 7 mps 742 mmHg 79%
    17:00 +4°C° 0 mm 7 mps 742 mmHg 77%
    18:00 +3°C° 0 mm 6 mps 743 mmHg 77%
    19:00 +3°C° 0 mm 5 mps 743 mmHg 77%
    20:00 +2°C° 0 mm 5 mps 744 mmHg 77%
    21:00 +2°C° 0 mm 5 mps 744 mmHg 77%
    22:00 +1°C° 0 mm 4 mps 744 mmHg 78%
    23:00 +1°C° 0 mm 4 mps 744 mmHg 78%

    Tomorrow, 19 December, Tuesday

    Time Temperature Precipitation Wind Pressure Humidity
    00:00 +1°C° 0 mm 4 mps 744 mmHg 78%
    01:00 +1°C° 0 mm 3 mps 745 mmHg 78%
    02:00 +1°C° 0 mm 3 mps 745 mmHg 78%
    03:00 +1°C° 0 mm 3 mps 745 mmHg 79%
    04:00 +1°C° 0 mm 2 mps 745 mmHg 79%
    05:00 +1°C° 0 mm 2 mps 745 mmHg 79%
    06:00 +1°C° 0 mm 2 mps 746 mmHg 79%
    07:00 +1°C° 0 mm 2 mps 746 mmHg 79%
    08:00 -1°C° 0 mm 2 mps 746 mmHg 79%
    09:00 +1°C° 0 mm 2 mps 747 mmHg 75%
    10:00 0°C° 0 mm 3 mps 747 mmHg 70%
    11:00 +1°C° 0 mm 3 mps 748 mmHg 66%
    12:00 +1°C° 0 mm 3 mps 748 mmHg 64%
    13:00 +2°C° 0 mm 3 mps 748 mmHg 63%
    14:00 +2°C° 0 mm 3 mps 748 mmHg 61%
    15:00 +1°C° 0 mm 3 mps 748 mmHg 64%
    16:00 +1°C° 0 mm 3 mps 748 mmHg 67%
    17:00 0°C° 0 mm 3 mps 749 mmHg 70%
    18:00 0°C° 0 mm 3 mps 749 mmHg 71%
    19:00 0°C° 0 mm 3 mps 749 mmHg 72%
    20:00 0°C° 0 mm 3 mps 749 mmHg 72%
    21:00 0°C° 0 mm 3 mps 749 mmHg 73%
    22:00 +1°C° 0 mm 2 mps 749 mmHg 75%
    23:00 +1°C° 0 mm 2 mps 749 mmHg 76%

    Day after tomorrow, 20 December, Wednesday

    Time Temperature Precipitation Wind Pressure Humidity
    00:00 -1°C° 0 mm 2 mps 750 mmHg 78%
    01:00 -1°C° 0 mm 2 mps 750 mmHg 80%
    02:00 -2°C° 0 mm 2 mps 750 mmHg 83%
    03:00 -2°C° 0 mm 2 mps 750 mmHg 83%
    04:00 -2°C° 0 mm 2 mps 751 mmHg 84%
    05:00 -1°C° 0 mm 1 mps 751 mmHg 84%
    06:00 -1°C° 0 mm 1 mps 751 mmHg 83%
    07:00 -1°C° 0 mm 1 mps 751 mmHg 82%
    08:00 -1°C° 0 mm 1 mps 752 mmHg 81%
    09:00 0°C° 0 mm 1 mps 752 mmHg 75%
    10:00 -1°C° 0 mm 2 mps 752 mmHg 69%
    11:00 +1°C° 0 mm 2 mps 753 mmHg 63%
    12:00 +1°C° 0 mm 2 mps 752 mmHg 61%
    13:00 +1°C° 0 mm 2 mps 752 mmHg 59%
    14:00 +2°C° 0 mm 2 mps 752 mmHg 57%
    15:00 +2°C° 0 mm 1 mps 752 mmHg 61%
    16:00 +1°C° 0 mm 1 mps 753 mmHg 65%
    17:00 0°C° 0 mm 1 mps 753 mmHg 69%
    18:00 0°C° 0 mm 1 mps 753 mmHg 69%
    19:00 0°C° 0 mm 1 mps 753 mmHg 70%
    20:00 0°C° 0 mm 1 mps 754 mmHg 71%
    21:00 0°C° 0 mm 1 mps 754 mmHg 72%
    22:00 -1°C° 0 mm 1 mps 754 mmHg 73%
    23:00 -3°C° 0 mm 2 mps 754 mmHg 73%

    21 December, Thursday

    Time Temperature Precipitation Wind Pressure Humidity
    00:00 -3°C° 0 mm 2 mps 754 mmHg 74%
    01:00 -3°C° 0 mm 2 mps 754 mmHg 76%
    02:00 -3°C° 0 mm 2 mps 755 mmHg 77%
    03:00 -3°C° 0 mm 2 mps 755 mmHg 78%
    04:00 -4°C° 0 mm 2 mps 755 mmHg 78%
    05:00 -4°C° 0 mm 2 mps 755 mmHg 79%
    06:00 -4°C° 0 mm 2 mps 755 mmHg 79%
    07:00 -4°C° 0 mm 2 mps 755 mmHg 78%
    08:00 -4°C° 0 mm 2 mps 755 mmHg 78%
    09:00 -3°C° 0 mm 2 mps 755 mmHg 71%
    10:00 -2°C° 0 mm 2 mps 755 mmHg 65%
    11:00 -1°C° 0 mm 2 mps 755 mmHg 58%
    12:00 -1°C° 0 mm 2 mps 755 mmHg 57%
    13:00 -1°C° 0 mm 2 mps 754 mmHg 55%
    14:00 -1°C° 0 mm 2 mps 754 mmHg 53%
    15:00 -2°C° 0 mm 2 mps 754 mmHg 57%
    16:00 -3°C° 0 mm 2 mps 754 mmHg 61%
    17:00 -1°C° 0 mm 1 mps 754 mmHg 65%
    18:00 -2°C° 0 mm 1 mps 754 mmHg 65%
    19:00 -2°C° 0 mm 1 mps 753 mmHg 66%
    20:00 -2°C° 0 mm 1 mps 753 mmHg 66%
    21:00 -2°C° 0 mm 1 mps 753 mmHg 66%
    22:00 -2°C° 0 mm 1 mps 753 mmHg 67%
    23:00 -2°C° 0 mm 1 mps 752 mmHg 67%

    22 December, Friday

    Time Temperature Precipitation Wind Pressure Humidity
    00:00 -2°C° 0 mm 1 mps 752 mmHg 67%
    01:00 -2°C° 0 mm 1 mps 751 mmHg 67%
    02:00 -2°C° 0 mm 1 mps 751 mmHg 68%
    03:00 -2°C° 0 mm 1 mps 750 mmHg 69%
    04:00 -2°C° 0 mm 1 mps 750 mmHg 69%
    05:00 -3°C° 0 mm 1 mps 750 mmHg 70%
    06:00 -2°C° 0 mm 1 mps 749 mmHg 70%
    07:00 -2°C° 0 mm 1 mps 749 mmHg 70%
    08:00 -2°C° 0 mm 1 mps 749 mmHg 71%
    09:00 -2°C° 0 mm 1 mps 749 mmHg 66%
    10:00 -1°C° 0 mm 1 mps 749 mmHg 62%
    11:00 0°C° 0 mm 1 mps 749 mmHg 57%
    12:00 -2°C° 0 mm 2 mps 748 mmHg 56%
    13:00 -1°C° 0 mm 2 mps 748 mmHg 54%
    14:00 -1°C° 0 mm 2 mps 747 mmHg 53%
    15:00 -2°C° 0 mm 2 mps 747 mmHg 57%
    16:00 -3°C° 0 mm 2 mps 747 mmHg 61%
    17:00 -4°C° 0 mm 2 mps 747 mmHg 65%
    18:00 -4°C° 0 mm 3 mps 747 mmHg 67%
    19:00 -4°C° 0 mm 3 mps 747 mmHg 69%
    20:00 -4°C° 0 mm 3 mps 746 mmHg 71%
    21:00 -3°C° 0 mm 4 mps 746 mmHg 74%
    22:00 -3°C° 0 mm 4 mps 746 mmHg 77%
    23:00 -3°C° 0 mm 4 mps 745 mmHg 80%

    23 December, Saturday

    Time Temperature Precipitation Wind Pressure Humidity
    00:00 -3°C° 0.1 mm 4 mps 745 mmHg 81%
    01:00 -2°C° 0.1 mm 5 mps 744 mmHg 82%
    02:00 -2°C° 0.1 mm 5 mps 744 mmHg 83%
    03:00 -3°C° 0 mm 4 mps 744 mmHg 84%
    04:00 -3°C° 0 mm 4 mps 743 mmHg 85%
    05:00 -3°C° 0 mm 4 mps 743 mmHg 85%
    06:00 -3°C° 0 mm 4 mps 743 mmHg 86%
    07:00 -3°C° 0 mm 4 mps 743 mmHg 87%
    08:00 -4°C° 0 mm 4 mps 742 mmHg 87%
    09:00 -2°C° 0 mm 4 mps 743 mmHg 81%
    10:00 -1°C° 0 mm 5 mps 743 mmHg 75%
    11:00 0°C° 0 mm 5 mps 743 mmHg 68%
    12:00 0°C° 0 mm 4 mps 742 mmHg 68%
    13:00 0°C° 0 mm 4 mps 742 mmHg 68%
    14:00 +1°C° 0 mm 3 mps 741 mmHg 68%
    15:00 0°C° 0 mm 3 mps 741 mmHg 73%
    16:00 +1°C° 0 mm 2 mps 741 mmHg 79%
    17:00 -1°C° 0 mm 2 mps 741 mmHg 84%
    18:00 -1°C° 0 mm 2 mps 741 mmHg 86%
    19:00 0°C° 0 mm 1 mps 741 mmHg 87%
    20:00 0°C° 0 mm 1 mps 741 mmHg 89%
    21:00 0°C° 0 mm 1 mps 741 mmHg 89%
    22:00 0°C° 0 mm 1 mps 741 mmHg 90%
    23:00 0°C° 0 mm 1 mps 741 mmHg 91%
    Show more